Погода в Свердловском

Россия / Свердловская область     56°11′38″N   58°20′52″E
темп.,
°C
ветер,
м/с
пор.,
м/с
влажн.,
%
обл.,
%
осадки,
мм/ч
давл.,
гПа
погр.,
м
16 апреля, пт
пт1623:00+10юз397623 0.0 1020129
02:00+9зюз337536 0.0 101931
05:00+8ссз379496 0.0 1021163
08:00+7св3793100 0.0 1022280
11:00+7всв5783100 0.0 1024448
14:00+6всв6878100 0.0 1026597
17:00+6в5773100 0.0 1026551
20:00+5в477732 0.0 1026389
17 апреля, сб
сб1723:00+3всв38825 0.0 1027162
02:00+1всв36765 0.0 102788
05:00+1всв34745 0.0 102769
08:00+3св34655 0.0 1027162
11:00+7ссв44495 0.0 1026664
14:00+9ссз44425 0.0 10251145
17:00+10ссз55362 0.0 10241303
20:00+7ссз47545 0.0 1023209
18 апреля, вс
вс1823:00+4сз37675 0.0 1024158
02:00+3зсз38745 0.0 1023159
05:00+2зсз49815 0.0 1023181
08:00+3ссз510825 0.0 1023528
11:00+4с7861100 0.0 10251311
14:00+5всв7658100 0.1 10271371
17:00+5св763493 0.2 10282040
20:00+2всв69415 0.0 1030717
19 апреля, пн
пн1923:000всв611480 0.0 1033541
02:00−1в610470 0.0 1034707
05:00−3в59430 0.0 1036555
08:00−2в67351 0.0 1037727
11:000в56240 0.0 10381409
14:00+3в56230 0.0 10371721
17:00+4в45230 0.0 10361807
20:00+2в35370 0.0 1037105
20 апреля, вт
вт2023:00−1юв36450 0.0 1038162
02:00−1ююв25450 0.0 1039190
05:00−2ю11445 0.0 103911
08:000ююз11355 0.0 1039232
11:00+2зсз11295 0.0 1038721
14:00+5зсз23275 0.0 1036961
17:00+7сз242747 0.0 10341185
20:00+5ссз34424 0.0 103467